Regional Weather Roundup
Issued by NWS

Home | Current Version | Previous Version | Graphics & Text | Print | Product List | Glossary On
Versions: 1 2 3 4 5 6 7 8 9 10 11 12 13 14 15 16 17 18 19 20 21 22 23 24 25 26 27
000
ASUS45 KCYS 251910
RWRWY

WYOMING REGIONAL WEATHER ROUNDUP
NATIONAL WEATHER SERVICE CHEYENNE WY
100 PM MDT THU AUG 25 2016

NOTE:  "FAIR" INDICATES FEW OR NO CLOUDS BELOW 12,000 FEET
WITH NO SIGNIFICANT WEATHER AND/OR OBSTRUCTIONS TO VISIBILITY.

WYZ001-252000-
YELLOWSTONE NATIONAL PARK

CITY           SKY/WX    TMP DP  RH WIND       PRES   REMARKS
LK YELLOWSTONE   N/A     55  37  50 E6        30.32F
W YELLOWSTONE  NOT AVBL

$$
WYZ002>013-054>058-071-098>099-252000-
NORTHERN WYOMING

CITY           SKY/WX    TMP DP  RH WIND       PRES   REMARKS
JACKSON        NOT AVBL
CODY           CLOUDY    57  43  58 N7        30.28F
GREYBULL       CLOUDY    62  37  39 SE6       30.24F
WORLAND        FAIR      63  41  44 CALM      30.25F
SHERIDAN       CLOUDY    64  39  39 VRB5      30.26F
BUFFALO        FAIR      60  38  43 S9        30.30F
GILLETTE       PTSUNNY   59  37  44 SW7       30.28F
HULETT         MOCLDY    61  36  39 NE3       30.30F
NEWCASTLE      FAIR      61  37  41 NW9       30.29F

$$
WYZ014>020-022>026-101>103-252000-
CENTRAL WYOMING

CITY           SKY/WX    TMP DP  RH WIND       PRES   REMARKS
BIG PINEY      FAIR      63  37  38 VRB3      30.29F
PINEDALE       FAIR      59  34  38 N5        30.30F
DUBOIS         CLOUDY    50  37  62 CALM      30.32F
LANDER         PTSUNNY   63  42  46 CALM      30.27F
RIVERTON       CLOUDY    59  43  55 N3        30.29F
CASPER         CLOUDY    58  44  60 E12       30.29F
DOUGLAS        CLOUDY    56  46  69 SE8       30.31F

$$
WYZ021-027>030-104>119-252000-
SOUTHERN WYOMING

CITY           SKY/WX    TMP DP  RH WIND       PRES   REMARKS
EVANSTON       PTSUNNY   60  34  37 VRB3      30.28F
FORT BRIDGER   FAIR      62  37  38 N6        30.31F
ROCK SPRINGS   FAIR      63  34  33 VRB5      30.27F
DIXON          FAIR      64  39  39 W3        30.29F
RAWLINS        FAIR      64  38  38 VRB6      30.29F
SARATOGA       FAIR      64  39  39 N12G18    30.29F
LARAMIE        FAIR      60  37  42 SE22      30.28F
CHEYENNE       FAIR      62  43  49 E12       30.32F
TORRINGTON     CLOUDY    67  42  40 NE5       30.27F
PINE BLUFFS    FAIR      66  43  42 E10G16    30.29F

$$




USA.gov is the U.S. government's official web portal to all federal, state and local government web resources and services.